Weather History for Torrington, WY

Change the Weather History Date:

Saturday, September 28, 2013

  Actual Average Record
Temperature  
Mean Temperature 50 °F 55 °F  
Max Temperature 66 °F 71 °F 92 °F (2010)
Min Temperature 33 °F 39 °F 23 °F (2006)
Degree Days  
Heating Degree Days 15 10  
Month to date heating degree days 96 152  
Since 1 July heating degree days 98 174  
Cooling Degree Days 0 0  
Month to date cooling degree days 120 44  
Year to date cooling degree days 893 677  
Moisture  
Dew Point 34 °F    
Average Humidity 63    
Maximum Humidity 96    
Minimum Humidity 29    
Precipitation  
Precipitation 0.00 in 0.04 in 0.39 in (2014)
Month to date precipitation 2.37 1.27  
Year to date precipitation 9.18 12.23  
Sea Level Pressure  
Sea Level Pressure 30.02 in    
Wind  
Wind Speed 10 mph (West)    
Max Wind Speed 23 mph    
Max Gust Speed 31 mph    
Visibility 10 miles    
Events      
T = Trace of Precipitation, MM = Missing Value Source: NWS Daily Summary

Daily Weather History Graph

Daily Weather History Graph

Search for Another Location

Airport:

Trip Planner

Search our weather history database for the weather conditions in past years. The results will help you decide how hot, cold, wet, or windy it might be!

Date:

Astronomy

Sep. 28, 2013 Rise Set
Actual Time 6:50 AM MDT 6:42 PM MDT
Civil Twilight 6:22 AM MDT 7:10 PM MDT
Nautical Twilight 5:50 AM MDT 7:43 PM MDT
Astronomical Twilight 5:17 AM MDT 8:15 PM MDT
Moon 12:35 AM MDT (9/28) 3:08 PM MDT (9/28)
Length of Visible Light 12h 47m
Length of Day
11h 52m
Waning Crescent, 35% of the Moon is Illuminated
Sep 28
Waning Crescent
Oct 4
New
Oct 11
First Quarter
Oct 18
Full
Oct 26
Last Quarter

Hourly Weather History & Observations

Time (MDT) Temp. Windchill Dew Point Humidity Pressure Visibility Wind Dir Wind Speed Gust Speed Precip Events Conditions
12:53 AM 37.0 °F 33.3 °F 35.1 °F 93% 29.99 in 10.0 mi WNW 4.6 mph - N/A   Clear
1:53 AM 36.0 °F 33.3 °F 34.0 °F 93% 30.00 in 10.0 mi WNW 3.5 mph - N/A   Scattered Clouds
2:53 AM 35.1 °F 31.0 °F 33.1 °F 92% 30.02 in 10.0 mi WNW 4.6 mph - N/A   Clear
3:53 AM 33.1 °F 26.1 °F 32.0 °F 96% 30.04 in 10.0 mi NW 8.1 mph - N/A   Clear
4:53 AM 35.1 °F 27.9 °F 32.0 °F 89% 30.04 in 10.0 mi NW 9.2 mph - N/A   Clear
5:53 AM 33.1 °F - 32.0 °F 96% 30.06 in 10.0 mi Calm Calm - N/A   Clear
6:53 AM 36.0 °F 29.6 °F 32.0 °F 86% 30.07 in 10.0 mi NW 8.1 mph - N/A   Clear
7:53 AM 37.0 °F 34.5 °F 34.0 °F 89% 30.09 in 10.0 mi SSE 3.5 mph - N/A   Clear
8:53 AM 46.9 °F - 36.0 °F 66% 30.06 in 10.0 mi Calm Calm - N/A   Clear
9:53 AM 53.1 °F - 32.0 °F 45% 30.04 in 10.0 mi West 18.4 mph 25.3 mph N/A   Clear
10:53 AM 57.0 °F - 30.9 °F 37% 30.04 in 10.0 mi West 15.0 mph 23.0 mph N/A   Clear
11:53 AM 60.1 °F - 30.9 °F 33% 30.03 in 10.0 mi West 12.7 mph 24.2 mph N/A   Clear
12:53 PM 61.0 °F - 30.9 °F 32% 30.02 in 10.0 mi West 15.0 mph 24.2 mph N/A   Clear
1:53 PM 64.0 °F - 32.0 °F 30% 29.99 in 10.0 mi WSW 16.1 mph 25.3 mph N/A   Clear
2:53 PM 66.0 °F - 33.1 °F 29% 29.98 in 10.0 mi West 24.2 mph 29.9 mph N/A   Clear
3:53 PM 66.0 °F - 35.1 °F 32% 29.98 in 10.0 mi West 13.8 mph 27.6 mph N/A   Clear
4:53 PM 66.0 °F - 34.0 °F 30% 29.98 in 10.0 mi West 18.4 mph 28.8 mph N/A   Clear
5:53 PM 64.0 °F - 35.1 °F 34% 30.01 in 10.0 mi West 12.7 mph 21.9 mph N/A   Clear
6:53 PM 59.0 °F - 35.1 °F 41% 30.01 in 10.0 mi West 13.8 mph 20.7 mph N/A   Clear
7:53 PM 52.0 °F - 37.9 °F 59% 30.05 in 10.0 mi SSW 5.8 mph - N/A   Clear
8:53 PM 53.1 °F - 37.0 °F 55% 30.02 in 10.0 mi WSW 8.1 mph - N/A   Clear
9:53 PM 51.1 °F - 36.0 °F 56% 30.02 in 10.0 mi SW 5.8 mph - N/A   Clear
10:53 PM 50.0 °F - 35.1 °F 57% 30.00 in 10.0 mi WSW 6.9 mph - N/A   Clear
11:53 PM 51.1 °F - 33.1 °F 50% 29.98 in 10.0 mi South 3.5 mph - N/A   Clear